Tracking 33199 objects as of 16-Feb-2026
HD Live streaming from Space Station
objects crossing your sky now

THORAD DELTA 1 DEB

Track THORAD DELTA 1 DEB now!
10-day predictions


NORAD ID: 8151
Int'l Code: 1974-089R
Perigee: 1,084.3 km
Apogee: 1,602.6 km
Inclination: 101.8 °
Period: 112.4 minutes
Semi major axis: 7714 km
RCS: 0.0604 m2 (small)
Launch date: November 15, 1974
Source: United States (US)
Launch site: AIR FORCE WESTERN TEST RANGE (AFWTR)

Note: This is SATELLITE DEBRIS
Your satellite tracking list
Your tracking list is empty




NASA's NSSDC Master Catalog

Two Line Element Set (TLE):
1  8151U 74089R   26047.25793602  .00000200  00000-0  85375-3 0  9999
2  8151 101.7689 157.9614 0335950 291.6209  92.8839 12.81287575393309
Source of the keplerian elements: AFSPC